Year,Month,Day,Hour,Minute,Value (Times are PST for temperature in C)
2018,04,24,00,00,7.40
2018,04,24,00,01,7.30
2018,04,24,00,02,7.30
2018,04,24,00,03,7.30
2018,04,24,00,04,7.30
2018,04,24,00,05,7.30
2018,04,24,00,06,7.30
2018,04,24,00,07,7.20
2018,04,24,00,08,7.20
2018,04,24,00,09,7.20
2018,04,24,00,10,7.20
2018,04,24,00,11,7.20
2018,04,24,00,12,7.20
2018,04,24,00,13,7.20
2018,04,24,00,14,7.20
2018,04,24,00,15,7.20
2018,04,24,00,16,7.20
2018,04,24,00,17,7.20
2018,04,24,00,18,7.20
2018,04,24,00,19,7.20
2018,04,24,00,20,7.30
2018,04,24,00,21,7.30
2018,04,24,00,22,7.30
2018,04,24,00,23,7.30
2018,04,24,00,24,7.30
2018,04,24,00,25,7.30
2018,04,24,00,26,7.20
2018,04,24,00,27,7.20
2018,04,24,00,28,7.20
2018,04,24,00,29,7.10
2018,04,24,00,30,7.10
2018,04,24,00,31,7.00
2018,04,24,00,32,7.00
2018,04,24,00,33,6.90
2018,04,24,00,34,6.90
2018,04,24,00,35,6.90
2018,04,24,00,36,6.90
2018,04,24,00,37,6.80
2018,04,24,00,38,6.80
2018,04,24,00,39,6.80
2018,04,24,00,40,6.80
2018,04,24,00,41,6.80
2018,04,24,00,42,6.80
2018,04,24,00,43,6.70
2018,04,24,00,44,6.70
2018,04,24,00,45,6.70
2018,04,24,00,46,6.70
2018,04,24,00,47,6.70
2018,04,24,00,48,6.70
2018,04,24,00,49,6.60
2018,04,24,00,50,6.60
2018,04,24,00,51,6.60
2018,04,24,00,52,6.60
2018,04,24,00,53,6.60
2018,04,24,00,54,6.60
2018,04,24,00,55,6.60
2018,04,24,00,56,6.60
2018,04,24,00,57,6.60
2018,04,24,00,58,6.60
2018,04,24,00,59,6.60
2018,04,24,01,00,6.50
2018,04,24,01,01,6.50
2018,04,24,01,02,6.50
2018,04,24,01,03,6.50
2018,04,24,01,04,6.50
2018,04,24,01,05,6.50
2018,04,24,01,06,6.50
2018,04,24,01,07,6.50
2018,04,24,01,08,6.50
2018,04,24,01,09,6.50
2018,04,24,01,10,6.50
2018,04,24,01,11,6.50
2018,04,24,01,12,6.50
2018,04,24,01,13,6.40
2018,04,24,01,14,6.40
2018,04,24,01,15,6.40
2018,04,24,01,16,6.40
2018,04,24,01,17,6.40
2018,04,24,01,18,6.40
2018,04,24,01,19,6.40
2018,04,24,01,20,6.40
2018,04,24,01,21,6.40
2018,04,24,01,22,6.30
2018,04,24,01,23,6.30
2018,04,24,01,24,6.30
2018,04,24,01,25,6.30
2018,04,24,01,26,6.30
2018,04,24,01,27,6.30
2018,04,24,01,28,6.30
2018,04,24,01,29,6.30
2018,04,24,01,30,6.20
2018,04,24,01,31,6.20
2018,04,24,01,32,6.20
2018,04,24,01,33,6.20
2018,04,24,01,34,6.20
2018,04,24,01,35,6.10
2018,04,24,01,36,6.10
2018,04,24,01,37,6.10
2018,04,24,01,38,6.10
2018,04,24,01,39,6.10
2018,04,24,01,40,6.10
2018,04,24,01,41,6.10
2018,04,24,01,42,6.10
2018,04,24,01,43,6.00
2018,04,24,01,44,6.00
2018,04,24,01,45,6.10
2018,04,24,01,46,6.10
2018,04,24,01,47,6.10
2018,04,24,01,48,6.10
2018,04,24,01,49,6.10
2018,04,24,01,50,6.10
2018,04,24,01,51,6.10
2018,04,24,01,52,6.10
2018,04,24,01,53,6.10
2018,04,24,01,54,6.10
2018,04,24,01,55,6.10
2018,04,24,01,56,6.10
2018,04,24,01,57,6.10
2018,04,24,01,58,6.10
2018,04,24,01,59,6.00
2018,04,24,02,00,6.00
2018,04,24,02,01,6.00
2018,04,24,02,02,5.90
2018,04,24,02,03,5.90
2018,04,24,02,04,5.90
2018,04,24,02,05,5.90
2018,04,24,02,06,5.90
2018,04,24,02,07,5.90
2018,04,24,02,08,5.90
2018,04,24,02,09,5.90
2018,04,24,02,10,5.80
2018,04,24,02,11,5.80
2018,04,24,02,12,5.80
2018,04,24,02,13,5.80
2018,04,24,02,14,5.80
2018,04,24,02,15,5.80
2018,04,24,02,16,5.80
2018,04,24,02,17,5.80
2018,04,24,02,18,5.80
2018,04,24,02,19,5.80
2018,04,24,02,20,5.80
2018,04,24,02,21,5.80
2018,04,24,02,22,5.70
2018,04,24,02,23,5.70
2018,04,24,02,24,5.70
2018,04,24,02,25,5.70
2018,04,24,02,26,5.70
2018,04,24,02,27,5.60
2018,04,24,02,28,5.60
2018,04,24,02,29,5.60
2018,04,24,02,30,5.50
2018,04,24,02,31,5.50
2018,04,24,02,32,5.50
2018,04,24,02,33,5.50
2018,04,24,02,34,5.40
2018,04,24,02,35,5.40
2018,04,24,02,36,5.40
2018,04,24,02,37,5.40
2018,04,24,02,38,5.40
2018,04,24,02,39,5.40
2018,04,24,02,40,5.40
2018,04,24,02,41,5.30
2018,04,24,02,42,5.30
2018,04,24,02,43,5.30
2018,04,24,02,44,5.30
2018,04,24,02,45,5.30
2018,04,24,02,46,5.30
2018,04,24,02,47,5.30
2018,04,24,02,48,5.30
2018,04,24,02,49,5.30
2018,04,24,02,50,5.30
2018,04,24,02,51,5.30
2018,04,24,02,52,5.30
2018,04,24,02,53,5.30
2018,04,24,02,54,5.30
2018,04,24,02,55,5.30
2018,04,24,02,56,5.30
2018,04,24,02,57,5.30
2018,04,24,02,58,5.30
2018,04,24,02,59,5.30
2018,04,24,03,00,5.20
2018,04,24,03,01,5.20
2018,04,24,03,02,5.20
2018,04,24,03,03,5.20
2018,04,24,03,04,5.20
2018,04,24,03,05,5.20
2018,04,24,03,06,5.20
2018,04,24,03,07,5.20
2018,04,24,03,08,5.20
2018,04,24,03,09,5.20
2018,04,24,03,10,5.20
2018,04,24,03,11,5.20
2018,04,24,03,12,5.20
2018,04,24,03,13,5.20
2018,04,24,03,14,5.20
2018,04,24,03,15,5.20
2018,04,24,03,16,5.20
2018,04,24,03,17,5.20
2018,04,24,03,18,5.20
2018,04,24,03,19,5.20
2018,04,24,03,20,5.20
2018,04,24,03,21,5.20
2018,04,24,03,22,5.20
2018,04,24,03,23,5.20
2018,04,24,03,24,5.20
2018,04,24,03,25,5.20
2018,04,24,03,26,5.20
2018,04,24,03,27,5.20
2018,04,24,03,28,5.20
2018,04,24,03,29,5.20
2018,04,24,03,30,5.20
2018,04,24,03,31,5.20
2018,04,24,03,32,5.20
2018,04,24,03,33,5.10
2018,04,24,03,34,5.10
2018,04,24,03,35,5.10
2018,04,24,03,36,5.10
2018,04,24,03,37,5.10
2018,04,24,03,38,5.10
2018,04,24,03,39,5.10
2018,04,24,03,40,5.00
2018,04,24,03,41,5.00
2018,04,24,03,42,5.00
2018,04,24,03,43,5.00
2018,04,24,03,44,4.90
2018,04,24,03,45,4.90
2018,04,24,03,46,4.90
2018,04,24,03,47,4.90
2018,04,24,03,48,4.90
2018,04,24,03,49,4.90
2018,04,24,03,50,4.90
2018,04,24,03,51,4.90
2018,04,24,03,52,4.80
2018,04,24,03,53,4.80
2018,04,24,03,54,4.80
2018,04,24,03,55,4.80
2018,04,24,03,56,4.70
2018,04,24,03,57,4.70
2018,04,24,03,58,4.70
2018,04,24,03,59,4.60
2018,04,24,04,00,4.60
2018,04,24,04,01,4.60
2018,04,24,04,02,4.60
2018,04,24,04,03,4.60
2018,04,24,04,04,4.60
2018,04,24,04,05,4.50
2018,04,24,04,06,4.50
2018,04,24,04,07,4.50
2018,04,24,04,08,4.50
2018,04,24,04,09,4.50
2018,04,24,04,10,4.50
2018,04,24,04,11,4.50
2018,04,24,04,12,4.40
2018,04,24,04,13,4.40
2018,04,24,04,14,4.40
2018,04,24,04,15,4.40
2018,04,24,04,16,4.40
2018,04,24,04,17,4.40
2018,04,24,04,18,4.40
2018,04,24,04,19,4.40
2018,04,24,04,20,4.40
2018,04,24,04,21,4.40
2018,04,24,04,22,4.50
2018,04,24,04,23,4.50
2018,04,24,04,24,4.50
2018,04,24,04,25,4.60
2018,04,24,04,26,4.60
2018,04,24,04,27,4.60
2018,04,24,04,28,4.60
2018,04,24,04,29,4.60
2018,04,24,04,30,4.60
2018,04,24,04,31,4.60
2018,04,24,04,32,4.60
2018,04,24,04,33,4.60
2018,04,24,04,34,4.60
2018,04,24,04,35,4.60
2018,04,24,04,36,4.60
2018,04,24,04,37,4.60
2018,04,24,04,38,4.60
2018,04,24,04,39,4.60
2018,04,24,04,40,4.60
2018,04,24,04,41,4.60
2018,04,24,04,42,4.60
2018,04,24,04,43,4.60
2018,04,24,04,44,4.60
2018,04,24,04,45,4.60
2018,04,24,04,46,4.60
2018,04,24,04,47,4.50
2018,04,24,04,48,4.50
2018,04,24,04,49,4.50
2018,04,24,04,50,4.40
2018,04,24,04,51,4.40
2018,04,24,04,52,4.40
2018,04,24,04,53,4.40
2018,04,24,04,54,4.40
2018,04,24,04,55,4.40
2018,04,24,04,56,4.30
2018,04,24,04,57,4.30
2018,04,24,04,58,4.30
2018,04,24,04,59,4.30
2018,04,24,05,00,4.30
2018,04,24,05,01,4.30
2018,04,24,05,02,4.30
2018,04,24,05,03,4.30
2018,04,24,05,04,4.30
2018,04,24,05,05,4.30
2018,04,24,05,06,4.20
2018,04,24,05,07,4.30
2018,04,24,05,08,4.30
2018,04,24,05,09,4.30
2018,04,24,05,10,4.30
2018,04,24,05,11,4.30
2018,04,24,05,12,4.30
2018,04,24,05,13,4.30
2018,04,24,05,14,4.30
2018,04,24,05,15,4.30
2018,04,24,05,16,4.30
2018,04,24,05,17,4.30
2018,04,24,05,18,4.30
2018,04,24,05,19,4.30
2018,04,24,05,20,4.30
2018,04,24,05,21,4.30
2018,04,24,05,22,4.20
2018,04,24,05,23,4.20
2018,04,24,05,24,4.20
2018,04,24,05,25,4.20
2018,04,24,05,26,4.20
2018,04,24,05,27,4.20
2018,04,24,05,28,4.20
2018,04,24,05,29,4.20
2018,04,24,05,30,4.20
2018,04,24,05,31,4.20
2018,04,24,05,32,4.20
2018,04,24,05,33,4.30
2018,04,24,05,34,4.30
2018,04,24,05,35,4.30
2018,04,24,05,36,4.20
2018,04,24,05,37,4.20
2018,04,24,05,38,4.30
2018,04,24,05,39,4.30
2018,04,24,05,40,4.30
2018,04,24,05,41,4.30
2018,04,24,05,42,4.30
2018,04,24,05,43,4.20
2018,04,24,05,44,4.20
2018,04,24,05,45,4.20
2018,04,24,05,46,4.20
2018,04,24,05,47,4.20
2018,04,24,05,48,4.20
2018,04,24,05,49,4.10
2018,04,24,05,50,4.10
2018,04,24,05,51,4.10
2018,04,24,05,52,4.10
2018,04,24,05,53,4.10
2018,04,24,05,54,4.10
2018,04,24,05,55,4.10
2018,04,24,05,56,4.10
2018,04,24,05,57,4.10
2018,04,24,05,58,4.10
2018,04,24,05,59,4.00
2018,04,24,06,00,4.00
2018,04,24,06,01,4.00
2018,04,24,06,02,3.90
2018,04,24,06,03,3.90
2018,04,24,06,04,3.90
2018,04,24,06,05,3.90
2018,04,24,06,06,3.90
2018,04,24,06,07,3.90
2018,04,24,06,08,3.90
2018,04,24,06,09,3.90
2018,04,24,06,10,4.00
2018,04,24,06,11,4.00
2018,04,24,06,12,4.10
2018,04,24,06,13,4.10
2018,04,24,06,14,4.10
2018,04,24,06,15,4.10
2018,04,24,06,16,4.10
2018,04,24,06,17,4.10
2018,04,24,06,18,4.10
2018,04,24,06,19,4.10
2018,04,24,06,20,4.10
2018,04,24,06,21,4.10
2018,04,24,06,22,4.10
2018,04,24,06,23,4.10
2018,04,24,06,24,4.10
2018,04,24,06,25,4.10
2018,04,24,06,26,4.10
2018,04,24,06,27,4.10
2018,04,24,06,28,4.10
2018,04,24,06,29,4.10
2018,04,24,06,30,4.10
2018,04,24,06,31,4.10
2018,04,24,06,32,4.10
2018,04,24,06,33,4.10
2018,04,24,06,34,4.10
2018,04,24,06,35,4.10
2018,04,24,06,36,4.10
2018,04,24,06,37,4.10
2018,04,24,06,38,4.10
2018,04,24,06,39,4.10
2018,04,24,06,40,4.10
2018,04,24,06,41,4.10
2018,04,24,06,42,4.10
2018,04,24,06,43,4.10
2018,04,24,06,44,4.10
2018,04,24,06,45,4.10
2018,04,24,06,46,4.10
2018,04,24,06,47,4.10
2018,04,24,06,48,4.10
2018,04,24,06,49,4.10
2018,04,24,06,50,4.10
2018,04,24,06,51,4.10
2018,04,24,06,52,4.10
2018,04,24,06,53,4.20
2018,04,24,06,54,4.10
2018,04,24,06,55,4.10
2018,04,24,06,56,4.20
2018,04,24,06,57,4.20
2018,04,24,06,58,4.20
2018,04,24,06,59,4.20
2018,04,24,07,00,4.20
2018,04,24,07,01,4.20
2018,04,24,07,02,4.20
2018,04,24,07,03,4.20
2018,04,24,07,04,4.30
2018,04,24,07,05,4.30
2018,04,24,07,06,4.30
2018,04,24,07,07,4.30
2018,04,24,07,08,4.30
2018,04,24,07,09,4.40
2018,04,24,07,10,4.40
2018,04,24,07,11,4.40
2018,04,24,07,12,4.40
2018,04,24,07,13,4.50
2018,04,24,07,14,4.50
2018,04,24,07,15,4.50
2018,04,24,07,16,4.50
2018,04,24,07,17,4.60
2018,04,24,07,18,4.60
2018,04,24,07,19,4.60
2018,04,24,07,20,4.60
2018,04,24,07,21,4.60
2018,04,24,07,22,4.70
2018,04,24,07,23,4.70
2018,04,24,07,24,4.70
2018,04,24,07,25,4.70
2018,04,24,07,26,4.80
2018,04,24,07,27,4.80
2018,04,24,07,28,4.80
2018,04,24,07,29,4.80
2018,04,24,07,30,4.80
2018,04,24,07,31,4.80
2018,04,24,07,32,4.90
2018,04,24,07,33,4.90
2018,04,24,07,34,4.90
2018,04,24,07,35,4.90
2018,04,24,07,36,4.90
2018,04,24,07,37,5.00
2018,04,24,07,38,5.00
2018,04,24,07,39,5.00
2018,04,24,07,40,5.10
2018,04,24,07,41,5.10
2018,04,24,07,42,5.10
2018,04,24,07,43,5.10
2018,04,24,07,44,5.10
2018,04,24,07,45,5.10
2018,04,24,07,46,5.20
2018,04,24,07,47,5.20
2018,04,24,07,48,5.30
2018,04,24,07,49,5.30
2018,04,24,07,50,5.30
2018,04,24,07,51,5.40
2018,04,24,07,52,5.40
2018,04,24,07,53,5.40
2018,04,24,07,54,5.50
2018,04,24,07,55,5.50
2018,04,24,07,56,5.60
2018,04,24,07,57,5.60
2018,04,24,07,58,5.70
2018,04,24,07,59,5.70
2018,04,24,08,00,5.80
2018,04,24,08,01,5.80
2018,04,24,08,02,5.90
2018,04,24,08,03,5.90
2018,04,24,08,04,6.00
2018,04,24,08,05,6.00
2018,04,24,08,06,6.10
2018,04,24,08,07,6.10
2018,04,24,08,08,6.20
2018,04,24,08,09,6.20
2018,04,24,08,10,6.30
2018,04,24,08,11,6.30
2018,04,24,08,12,6.30
2018,04,24,08,13,6.40
2018,04,24,08,14,6.40
2018,04,24,08,15,6.50
2018,04,24,08,16,6.60
2018,04,24,08,17,6.60
2018,04,24,08,18,6.70
2018,04,24,08,19,6.80
2018,04,24,08,20,6.90
2018,04,24,08,21,6.90
2018,04,24,08,22,7.00
2018,04,24,08,23,7.10
2018,04,24,08,24,7.10
2018,04,24,08,25,7.20
2018,04,24,08,26,7.20
2018,04,24,08,27,7.20
2018,04,24,08,28,7.30
2018,04,24,08,29,7.40
2018,04,24,08,30,7.40
2018,04,24,08,31,7.50
2018,04,24,08,32,7.50
2018,04,24,08,33,7.60
2018,04,24,08,34,7.60
2018,04,24,08,35,7.70
2018,04,24,08,36,7.70
2018,04,24,08,37,7.80
2018,04,24,08,38,7.80
2018,04,24,08,39,7.90
2018,04,24,08,40,8.00
2018,04,24,08,41,8.00
2018,04,24,08,42,8.10
2018,04,24,08,43,8.20
2018,04,24,08,44,8.30
2018,04,24,08,45,8.40
2018,04,24,08,46,8.50
2018,04,24,08,47,8.60
2018,04,24,08,48,8.60
2018,04,24,08,49,8.70
2018,04,24,08,50,8.70
2018,04,24,08,51,8.70
2018,04,24,08,52,8.80
2018,04,24,08,53,8.80
2018,04,24,08,54,8.90
2018,04,24,08,55,8.90
2018,04,24,08,56,9.00
2018,04,24,08,57,9.10
2018,04,24,08,58,9.10
2018,04,24,08,59,9.20
2018,04,24,09,00,9.20
2018,04,24,09,01,9.30
2018,04,24,09,02,9.30
2018,04,24,09,03,9.30
2018,04,24,09,04,9.40
2018,04,24,09,05,9.40
2018,04,24,09,06,9.50
2018,04,24,09,07,9.60
2018,04,24,09,08,9.60
2018,04,24,09,09,9.70
2018,04,24,09,10,9.70
2018,04,24,09,11,9.80
2018,04,24,09,12,9.80
2018,04,24,09,13,9.90
2018,04,24,09,14,10.00
2018,04,24,09,15,10.10
2018,04,24,09,16,10.20
2018,04,24,09,17,10.20
2018,04,24,09,18,10.30
2018,04,24,09,19,10.40
2018,04,24,09,20,10.50
2018,04,24,09,21,10.60
2018,04,24,09,22,10.70
2018,04,24,09,23,10.80
2018,04,24,09,24,10.90
2018,04,24,09,25,11.10
2018,04,24,09,26,11.20
2018,04,24,09,27,11.30
2018,04,24,09,28,11.50
2018,04,24,09,29,11.60
2018,04,24,09,30,11.80
2018,04,24,09,31,12.00
2018,04,24,09,32,12.10
2018,04,24,09,33,12.30
2018,04,24,09,34,12.40
2018,04,24,09,35,12.60
2018,04,24,09,36,12.80
2018,04,24,09,37,13.00
2018,04,24,09,38,13.10
2018,04,24,09,39,13.20
2018,04,24,09,40,13.30
2018,04,24,09,41,13.40
2018,04,24,09,42,13.50
2018,04,24,09,43,13.60
2018,04,24,09,44,13.70
2018,04,24,09,45,13.80
2018,04,24,09,46,13.90
2018,04,24,09,47,14.00
2018,04,24,09,48,14.00
2018,04,24,09,49,14.10
2018,04,24,09,50,14.20
2018,04,24,09,51,14.30
2018,04,24,09,52,14.30
2018,04,24,09,53,14.30
2018,04,24,09,54,14.40
2018,04,24,09,55,14.40
2018,04,24,09,56,14.50
2018,04,24,09,57,14.60
2018,04,24,09,58,14.70
2018,04,24,09,59,14.70
2018,04,24,10,00,14.80
2018,04,24,10,01,14.80
2018,04,24,10,02,14.90
2018,04,24,10,03,14.90
2018,04,24,10,04,15.00
2018,04,24,10,05,15.00
2018,04,24,10,06,15.00
2018,04,24,10,07,15.00
2018,04,24,10,08,15.00
2018,04,24,10,09,15.00
2018,04,24,10,10,15.00
2018,04,24,10,11,15.00
2018,04,24,10,12,15.00
2018,04,24,10,13,15.00
2018,04,24,10,14,15.00
2018,04,24,10,15,15.00
2018,04,24,10,16,15.00
2018,04,24,10,17,15.10
2018,04,24,10,18,15.10
2018,04,24,10,19,15.20
2018,04,24,10,20,15.20
2018,04,24,10,21,15.20
2018,04,24,10,22,15.30
2018,04,24,10,23,15.30
2018,04,24,10,24,15.30
2018,04,24,10,25,15.40
2018,04,24,10,26,15.40
2018,04,24,10,27,15.40
2018,04,24,10,28,15.40
2018,04,24,10,29,15.50
2018,04,24,10,30,15.60
2018,04,24,10,31,15.60
2018,04,24,10,32,15.70
2018,04,24,10,33,15.80
2018,04,24,10,34,15.90
2018,04,24,10,35,15.90
2018,04,24,10,36,15.90
2018,04,24,10,37,16.00
2018,04,24,10,38,16.00
2018,04,24,10,39,16.00
2018,04,24,10,40,16.00
2018,04,24,10,41,16.00
2018,04,24,10,42,16.00
2018,04,24,10,43,16.10
2018,04,24,10,44,16.10
2018,04,24,10,45,16.10
2018,04,24,10,46,16.10
2018,04,24,10,47,16.10
2018,04,24,10,48,16.20
2018,04,24,10,49,16.20
2018,04,24,10,50,16.30
2018,04,24,10,51,16.30
2018,04,24,10,52,16.40
2018,04,24,10,53,16.50
2018,04,24,10,54,16.50
2018,04,24,10,55,16.60
2018,04,24,10,56,16.70
2018,04,24,10,57,16.80
2018,04,24,10,58,16.80
2018,04,24,10,59,16.90
2018,04,24,11,00,17.00
2018,04,24,11,01,17.10
2018,04,24,11,02,17.20
2018,04,24,11,03,17.30
2018,04,24,11,04,17.30
2018,04,24,11,05,17.30
2018,04,24,11,06,17.20
2018,04,24,11,07,17.20
2018,04,24,11,08,17.20
2018,04,24,11,09,17.30
2018,04,24,11,10,17.30
2018,04,24,11,11,17.30
2018,04,24,11,12,17.40
2018,04,24,11,13,17.40
2018,04,24,11,14,17.50
2018,04,24,11,15,17.50
2018,04,24,11,16,17.60
2018,04,24,11,17,17.60
2018,04,24,11,18,17.70
2018,04,24,11,19,17.80
2018,04,24,11,20,17.90
2018,04,24,11,21,18.10
2018,04,24,11,22,18.20
2018,04,24,11,23,18.30
2018,04,24,11,24,18.40
2018,04,24,11,25,18.40
2018,04,24,11,26,18.50
2018,04,24,11,27,18.50
2018,04,24,11,28,18.50
2018,04,24,11,29,18.50
2018,04,24,11,30,18.50
2018,04,24,11,31,18.40
2018,04,24,11,32,18.40
2018,04,24,11,33,18.40
2018,04,24,11,34,18.40
2018,04,24,11,35,18.40
2018,04,24,11,36,18.40
2018,04,24,11,37,18.40
2018,04,24,11,38,18.50
2018,04,24,11,39,18.50
2018,04,24,11,40,18.60
2018,04,24,11,41,18.60
2018,04,24,11,42,18.70
2018,04,24,11,43,18.70
2018,04,24,11,44,18.80
2018,04,24,11,45,18.80
2018,04,24,11,46,18.80
2018,04,24,11,47,18.90
2018,04,24,11,48,18.90
2018,04,24,11,49,18.90
2018,04,24,11,50,19.00
2018,04,24,11,51,19.00
2018,04,24,11,52,19.10
2018,04,24,11,53,19.10
2018,04,24,11,54,19.10
2018,04,24,11,55,19.10
2018,04,24,11,56,19.10
2018,04,24,11,57,19.00
2018,04,24,11,58,19.00
2018,04,24,11,59,18.90
2018,04,24,12,00,18.80
2018,04,24,12,01,18.80
2018,04,24,12,02,18.80
2018,04,24,12,03,18.80
2018,04,24,12,04,18.80
2018,04,24,12,05,18.80
2018,04,24,12,06,18.80
2018,04,24,12,07,18.90
2018,04,24,12,08,18.90
2018,04,24,12,09,18.90
2018,04,24,12,10,18.90
2018,04,24,12,11,18.90
2018,04,24,12,12,18.90
2018,04,24,12,13,18.80
2018,04,24,12,14,18.80
2018,04,24,12,15,18.90
2018,04,24,12,16,18.90
2018,04,24,12,17,18.90
2018,04,24,12,18,18.90
2018,04,24,12,19,18.90
2018,04,24,12,20,19.00
2018,04,24,12,21,19.00
2018,04,24,12,22,19.10
2018,04,24,12,23,19.20
2018,04,24,12,24,19.30
2018,04,24,12,25,19.30
2018,04,24,12,26,19.40
2018,04,24,12,27,19.50
2018,04,24,12,28,19.50
2018,04,24,12,29,19.60
2018,04,24,12,30,19.60
2018,04,24,12,31,19.60
2018,04,24,12,32,19.60
2018,04,24,12,33,19.60
2018,04,24,12,34,19.50
2018,04,24,12,35,19.50
2018,04,24,12,36,19.50
2018,04,24,12,37,19.40
2018,04,24,12,38,19.40
2018,04,24,12,39,19.40
2018,04,24,12,40,19.40
2018,04,24,12,41,19.50
2018,04,24,12,42,19.50
2018,04,24,12,43,19.60
2018,04,24,12,44,19.60
2018,04,24,12,45,19.70
2018,04,24,12,46,19.80
2018,04,24,12,47,19.90
2018,04,24,12,48,20.00
2018,04,24,12,49,20.00
2018,04,24,12,50,20.10
2018,04,24,12,51,20.10
2018,04,24,12,52,20.10
2018,04,24,12,53,20.10
2018,04,24,12,54,20.20
2018,04,24,12,55,20.20
2018,04,24,12,56,20.20
2018,04,24,12,57,20.30
2018,04,24,12,58,20.30
2018,04,24,12,59,20.30
2018,04,24,13,00,20.40
2018,04,24,13,01,20.40
2018,04,24,13,02,20.40
2018,04,24,13,03,20.50
2018,04,24,13,04,20.60
2018,04,24,13,05,20.60
2018,04,24,13,06,20.70
2018,04,24,13,07,20.80
2018,04,24,13,08,20.80
2018,04,24,13,09,20.90
2018,04,24,13,10,21.00
2018,04,24,13,11,21.00
2018,04,24,13,12,20.90
2018,04,24,13,13,20.90
2018,04,24,13,14,20.80
2018,04,24,13,15,20.70
2018,04,24,13,16,20.50
2018,04,24,13,17,20.40
2018,04,24,13,18,20.20
2018,04,24,13,19,20.10
2018,04,24,13,20,20.00
2018,04,24,13,21,20.00
2018,04,24,13,22,20.00
2018,04,24,13,23,20.10
2018,04,24,13,24,20.20
2018,04,24,13,25,20.30
2018,04,24,13,26,20.40
2018,04,24,13,27,20.50
2018,04,24,13,28,20.60
2018,04,24,13,29,20.70
2018,04,24,13,30,20.80
2018,04,24,13,31,20.80
2018,04,24,13,32,20.90
2018,04,24,13,33,21.00
2018,04,24,13,34,21.00
2018,04,24,13,35,21.10
2018,04,24,13,36,21.00
2018,04,24,13,37,21.00
2018,04,24,13,38,21.00
2018,04,24,13,39,21.00
2018,04,24,13,40,21.00
2018,04,24,13,41,21.00
2018,04,24,13,42,21.00
2018,04,24,13,43,21.00
2018,04,24,13,44,21.00
2018,04,24,13,45,20.90
2018,04,24,13,46,20.90
2018,04,24,13,47,20.90
2018,04,24,13,48,20.90
2018,04,24,13,49,20.80
2018,04,24,13,50,20.80
2018,04,24,13,51,20.80
2018,04,24,13,52,20.80
2018,04,24,13,53,20.80
2018,04,24,13,54,20.80
2018,04,24,13,55,20.80
2018,04,24,13,56,20.90
2018,04,24,13,57,21.00
2018,04,24,13,58,21.10
2018,04,24,13,59,21.20
2018,04,24,14,00,21.20
2018,04,24,14,01,21.30
2018,04,24,14,02,21.40
2018,04,24,14,03,21.50
2018,04,24,14,04,21.60
2018,04,24,14,05,21.60
2018,04,24,14,06,21.60
2018,04,24,14,07,21.60
2018,04,24,14,08,21.60
2018,04,24,14,09,21.70
2018,04,24,14,10,21.70
2018,04,24,14,11,21.70
2018,04,24,14,12,21.80
2018,04,24,14,13,21.80
2018,04,24,14,14,21.80
2018,04,24,14,15,21.80
2018,04,24,14,16,21.80
2018,04,24,14,17,21.80
2018,04,24,14,18,21.80
2018,04,24,14,19,21.60
2018,04,24,14,20,21.50
2018,04,24,14,21,21.40
2018,04,24,14,22,21.40
2018,04,24,14,23,21.40
2018,04,24,14,24,21.40
2018,04,24,14,25,21.50
2018,04,24,14,26,21.60
2018,04,24,14,27,21.60
2018,04,24,14,28,21.60
2018,04,24,14,29,21.60
2018,04,24,14,30,21.60
2018,04,24,14,31,21.60
2018,04,24,14,32,21.60
2018,04,24,14,33,21.60
2018,04,24,14,34,21.70
2018,04,24,14,35,21.70
2018,04,24,14,36,21.80
2018,04,24,14,37,21.80
2018,04,24,14,38,21.80
2018,04,24,14,39,21.60
2018,04,24,14,40,21.50
2018,04,24,14,41,21.40
2018,04,24,14,42,21.40
2018,04,24,14,43,21.40
2018,04,24,14,44,21.40
2018,04,24,14,45,21.40
2018,04,24,14,46,21.40
2018,04,24,14,47,21.50
2018,04,24,14,48,21.60
2018,04,24,14,49,21.70
2018,04,24,14,50,21.70
2018,04,24,14,51,21.70
2018,04,24,14,52,21.70
2018,04,24,14,53,21.70
2018,04,24,14,54,21.60
2018,04,24,14,55,21.50
2018,04,24,14,56,21.50
2018,04,24,14,57,21.60
2018,04,24,14,58,21.60
2018,04,24,14,59,21.70
2018,04,24,15,00,21.80
2018,04,24,15,01,21.80
2018,04,24,15,02,22.00
2018,04,24,15,03,22.10
2018,04,24,15,04,22.20
2018,04,24,15,05,22.30
2018,04,24,15,06,22.40
2018,04,24,15,07,22.40
2018,04,24,15,08,22.50
2018,04,24,15,09,22.50
2018,04,24,15,10,22.60
2018,04,24,15,11,22.60
2018,04,24,15,12,22.70
2018,04,24,15,13,22.70
2018,04,24,15,14,22.70
2018,04,24,15,15,22.80
2018,04,24,15,16,22.80
2018,04,24,15,17,22.90
2018,04,24,15,18,22.90
2018,04,24,15,19,22.90
2018,04,24,15,20,22.90
2018,04,24,15,21,22.90
2018,04,24,15,22,22.90
2018,04,24,15,23,23.00
2018,04,24,15,24,23.00
2018,04,24,15,25,23.10
2018,04,24,15,26,23.20
2018,04,24,15,27,23.20
2018,04,24,15,28,23.30
2018,04,24,15,29,23.30
2018,04,24,15,30,23.30
2018,04,24,15,31,23.30
2018,04,24,15,32,23.30
2018,04,24,15,33,23.40
2018,04,24,15,34,23.40
2018,04,24,15,35,23.40
2018,04,24,15,36,23.40
2018,04,24,15,37,23.30
2018,04,24,15,38,23.30
2018,04,24,15,39,23.20
2018,04,24,15,40,23.20
2018,04,24,15,41,23.10
2018,04,24,15,42,23.10
2018,04,24,15,43,23.10
2018,04,24,15,44,23.10
2018,04,24,15,45,23.00
2018,04,24,15,46,23.00
2018,04,24,15,47,23.00
2018,04,24,15,48,23.00
2018,04,24,15,49,23.00
2018,04,24,15,50,23.00
2018,04,24,15,51,23.00
2018,04,24,15,52,23.00
2018,04,24,15,53,22.90
2018,04,24,15,54,22.90
2018,04,24,15,55,23.00
2018,04,24,15,56,23.00
2018,04,24,15,57,22.90
2018,04,24,15,58,22.80
2018,04,24,15,59,22.70
2018,04,24,16,00,22.50
2018,04,24,16,01,22.40
2018,04,24,16,02,22.40
2018,04,24,16,03,22.40
2018,04,24,16,04,22.40
2018,04,24,16,05,22.40
2018,04,24,16,06,22.50
2018,04,24,16,07,22.50
2018,04,24,16,08,22.60
2018,04,24,16,09,22.70
2018,04,24,16,10,22.80
2018,04,24,16,11,22.90
2018,04,24,16,12,23.00
2018,04,24,16,13,23.00
2018,04,24,16,14,23.10
2018,04,24,16,15,23.00
2018,04,24,16,16,22.90
2018,04,24,16,17,22.80
2018,04,24,16,18,22.70
2018,04,24,16,19,22.70
2018,04,24,16,20,22.70
2018,04,24,16,21,22.70
2018,04,24,16,22,22.70
2018,04,24,16,23,22.70
2018,04,24,16,24,22.80
2018,04,24,16,25,22.80
2018,04,24,16,26,22.80
2018,04,24,16,27,22.80
2018,04,24,16,28,22.80
2018,04,24,16,29,22.90
2018,04,24,16,30,22.90
2018,04,24,16,31,22.80
2018,04,24,16,32,22.80
2018,04,24,16,33,22.80
2018,04,24,16,34,22.70
2018,04,24,16,35,22.70
2018,04,24,16,36,22.80
2018,04,24,16,37,22.80
2018,04,24,16,38,22.80
2018,04,24,16,39,22.90
2018,04,24,16,40,22.90
2018,04,24,16,41,23.00
2018,04,24,16,42,23.10
2018,04,24,16,43,23.20
2018,04,24,16,44,23.20
2018,04,24,16,45,23.20
2018,04,24,16,46,23.10
2018,04,24,16,47,23.00
2018,04,24,16,48,22.90
2018,04,24,16,49,22.80
2018,04,24,16,50,22.70
2018,04,24,16,51,22.70
2018,04,24,16,52,22.60
2018,04,24,16,53,22.60
2018,04,24,16,54,22.70
2018,04,24,16,55,22.70
2018,04,24,16,56,22.70
2018,04,24,16,57,22.70
2018,04,24,16,58,22.70
2018,04,24,16,59,22.70
2018,04,24,17,00,22.70
2018,04,24,17,01,22.70
2018,04,24,17,02,22.70
2018,04,24,17,03,22.70
2018,04,24,17,04,22.70
2018,04,24,17,05,22.80
2018,04,24,17,06,22.80
2018,04,24,17,07,22.80
2018,04,24,17,08,22.80
2018,04,24,17,09,22.70
2018,04,24,17,10,22.70
2018,04,24,17,11,22.60
2018,04,24,17,12,22.60
2018,04,24,17,13,22.60
2018,04,24,17,14,22.50
2018,04,24,17,15,22.50
2018,04,24,17,16,22.40
2018,04,24,17,17,22.30
2018,04,24,17,18,22.30
2018,04,24,17,19,22.30
2018,04,24,17,20,22.30
2018,04,24,17,21,22.30
2018,04,24,17,22,22.30
2018,04,24,17,23,22.30
2018,04,24,17,24,22.20
2018,04,24,17,25,22.20
2018,04,24,17,26,22.20
2018,04,24,17,27,22.10
2018,04,24,17,28,22.10
2018,04,24,17,29,22.10
2018,04,24,17,30,22.10
2018,04,24,17,31,22.10
2018,04,24,17,32,22.00
2018,04,24,17,33,22.00
2018,04,24,17,34,22.00
2018,04,24,17,35,21.90
2018,04,24,17,36,21.90
2018,04,24,17,37,21.80
2018,04,24,17,38,21.80
2018,04,24,17,39,21.70
2018,04,24,17,40,21.60
2018,04,24,17,41,21.50
2018,04,24,17,42,21.40
2018,04,24,17,43,21.40